Time,TemperatureF,DewpointF,PressureIn,WindDirection,WindDirectionDegrees,WindSpeedMPH,WindSpeedGustMPH,Humidity,HourlyPrecipIn,Conditions,Clouds,dailyrainin,SoftwareType,DateUTC
2013-03-19 00:01:00,33.5,18.6,30.05,West,275,9.0,13.0,54,0.00,,,0.00,VWS V14.01,2013-03-19 05:01:00,
2013-03-19 00:06:00,33.5,18.6,30.05,WNW,290,4.0,13.0,54,0.00,,,0.00,VWS V14.01,2013-03-19 05:06:00,
2013-03-19 00:11:00,33.4,18.6,30.05,WNW,290,1.0,13.0,54,0.00,,,0.00,VWS V14.01,2013-03-19 05:11:00,
2013-03-19 00:16:00,33.2,18.4,30.05,SW,234,2.0,13.0,54,0.00,,,0.00,VWS V14.01,2013-03-19 05:16:00,
2013-03-19 00:22:00,33.1,18.3,30.05,WNW,284,2.0,13.0,54,0.00,,,0.00,VWS V14.01,2013-03-19 05:22:00,
2013-03-19 00:27:00,33.0,18.2,30.05,WNW,290,5.0,13.0,54,0.00,,,0.00,VWS V14.01,2013-03-19 05:27:00,
2013-03-19 00:32:00,33.0,18.2,30.04,West,276,0.0,7.0,54,0.00,,,0.00,VWS V14.01,2013-03-19 05:32:00,
2013-03-19 00:37:00,32.8,18.0,30.04,WSW,252,2.0,7.0,54,0.00,,,0.00,VWS V14.01,2013-03-19 05:37:00,
2013-03-19 00:42:00,32.8,18.0,30.04,West,272,2.0,8.0,54,0.00,,,0.00,VWS V14.01,2013-03-19 05:42:00,
2013-03-19 00:47:00,32.7,17.9,30.05,SW,221,7.0,8.0,54,0.00,,,0.00,VWS V14.01,2013-03-19 05:47:00,
2013-03-19 00:52:00,32.7,17.5,30.05,WSW,253,1.0,9.0,53,0.00,,,0.00,VWS V14.01,2013-03-19 05:52:00,
2013-03-19 00:57:00,32.6,17.4,30.05,West,277,4.0,9.0,53,0.00,,,0.00,VWS V14.01,2013-03-19 05:57:00,
2013-03-19 01:02:00,32.5,17.3,30.05,WSW,257,4.0,7.0,53,0.00,,,0.00,VWS V14.01,2013-03-19 06:02:00,
2013-03-19 01:07:00,32.4,17.6,30.05,WSW,252,4.0,8.0,54,0.00,,,0.00,VWS V14.01,2013-03-19 06:07:00,
2013-03-19 01:12:00,32.3,17.5,30.04,WSW,254,2.0,8.0,54,0.00,,,0.00,VWS V14.01,2013-03-19 06:12:00,
2013-03-19 01:17:00,32.1,17.3,30.04,NW,307,2.0,9.0,54,0.00,,,0.00,VWS V14.01,2013-03-19 06:17:00,
2013-03-19 01:22:00,32.1,17.8,30.04,West,261,4.0,9.0,55,0.00,,,0.00,VWS V14.01,2013-03-19 06:22:00,
2013-03-19 01:27:00,31.9,17.2,30.04,West,269,2.0,9.0,54,0.00,,,0.00,VWS V14.01,2013-03-19 06:27:00,
2013-03-19 01:32:00,31.9,17.6,30.05,WSW,257,3.0,5.0,55,0.00,,,0.00,VWS V14.01,2013-03-19 06:32:00,
2013-03-19 01:37:00,31.8,17.5,30.05,West,271,5.0,6.0,55,0.00,,,0.00,VWS V14.01,2013-03-19 06:37:00,
2013-03-19 01:42:00,31.8,17.5,30.06,WSW,250,4.0,6.0,55,0.00,,,0.00,VWS V14.01,2013-03-19 06:42:00,
2013-03-19 01:47:00,31.7,17.8,30.05,West,265,5.0,6.0,56,0.00,,,0.00,VWS V14.01,2013-03-19 06:47:00,
2013-03-19 01:52:00,31.7,17.8,30.05,West,264,2.0,10.0,56,0.00,,,0.00,VWS V14.01,2013-03-19 06:52:00,
2013-03-19 01:57:00,31.6,17.7,30.04,WSW,250,3.0,10.0,56,0.00,,,0.00,VWS V14.01,2013-03-19 06:57:00,
2013-03-19 02:02:00,31.6,17.3,30.05,West,263,4.0,8.0,55,0.00,,,0.00,VWS V14.01,2013-03-19 07:02:00,
2013-03-19 02:07:00,31.7,17.0,30.05,West,264,5.0,12.0,54,0.00,,,0.00,VWS V14.01,2013-03-19 07:07:00,
2013-03-19 02:12:00,31.7,17.0,30.06,West,264,5.0,12.0,54,0.00,,,0.00,VWS V14.01,2013-03-19 07:12:00,
2013-03-19 02:17:00,31.8,17.1,30.06,West,269,5.0,12.0,54,0.00,,,0.00,VWS V14.01,2013-03-19 07:17:00,
2013-03-19 02:22:00,31.8,17.1,30.06,WNW,284,6.0,12.0,54,0.00,,,0.00,VWS V14.01,2013-03-19 07:22:00,
2013-03-19 02:27:00,31.8,17.1,30.06,WNW,284,2.0,12.0,54,0.00,,,0.00,VWS V14.01,2013-03-19 07:27:00,
2013-03-19 02:32:00,31.8,17.1,30.06,West,269,3.0,6.0,54,0.00,,,0.00,VWS V14.01,2013-03-19 07:32:00,
2013-03-19 02:37:00,31.8,17.1,30.06,West,261,5.0,8.0,54,0.00,,,0.00,VWS V14.01,2013-03-19 07:37:00,
2013-03-19 02:42:00,31.7,17.4,30.06,West,263,5.0,8.0,55,0.00,,,0.00,VWS V14.01,2013-03-19 07:42:00,
2013-03-19 02:47:00,31.7,17.4,30.06,WSW,253,4.0,11.0,55,0.00,,,0.00,VWS V14.01,2013-03-19 07:47:00,
2013-03-19 02:52:00,31.6,16.9,30.06,West,265,6.0,11.0,54,0.00,,,0.00,VWS V14.01,2013-03-19 07:52:00,
2013-03-19 02:57:00,31.7,17.0,30.06,West,265,3.0,13.0,54,0.00,,,0.00,VWS V14.01,2013-03-19 07:57:00,
2013-03-19 03:02:00,31.7,16.5,30.07,WNW,285,2.0,10.0,53,0.00,,,0.00,VWS V14.01,2013-03-19 08:02:00,
2013-03-19 03:07:00,31.7,17.0,30.07,WSW,258,5.0,11.0,54,0.00,,,0.00,VWS V14.01,2013-03-19 08:07:00,
2013-03-19 03:12:00,31.7,17.0,30.06,West,263,5.0,12.0,54,0.00,,,0.00,VWS V14.01,2013-03-19 08:12:00,
2013-03-19 03:17:00,31.7,16.5,30.06,West,273,11.0,12.0,53,0.00,,,0.00,VWS V14.01,2013-03-19 08:17:00,
2013-03-19 03:23:00,31.7,16.5,30.06,WNW,284,6.0,13.0,53,0.00,,,0.00,VWS V14.01,2013-03-19 08:23:00,
2013-03-19 03:28:00,31.7,16.5,30.06,WNW,295,2.0,13.0,53,0.00,,,0.00,VWS V14.01,2013-03-19 08:28:00,
2013-03-19 03:33:00,31.6,16.5,30.05,WSW,257,6.0,12.0,53,0.00,,,0.00,VWS V14.01,2013-03-19 08:33:00,
2013-03-19 03:38:00,31.5,15.9,30.05,West,272,6.0,13.0,52,0.00,,,0.00,VWS V14.01,2013-03-19 08:38:00,
2013-03-19 03:43:00,31.5,16.4,30.05,WSW,250,6.0,13.0,53,0.00,,,0.00,VWS V14.01,2013-03-19 08:43:00,
2013-03-19 03:53:00,31.2,16.1,30.06,WNW,288,5.0,13.0,53,0.00,,,0.00,VWS V14.01,2013-03-19 08:53:00,
2013-03-19 03:58:00,31.2,16.1,30.06,WSW,245,4.0,13.0,53,0.00,,,0.00,VWS V14.01,2013-03-19 08:58:00,
2013-03-19 04:03:00,31.2,16.1,30.07,West,281,0.0,6.0,53,0.00,,,0.00,VWS V14.01,2013-03-19 09:03:00,
2013-03-19 04:08:00,31.1,16.0,30.07,West,276,5.0,11.0,53,0.00,,,0.00,VWS V14.01,2013-03-19 09:08:00,
2013-03-19 04:13:00,31.2,16.1,30.07,West,274,8.0,11.0,53,0.00,,,0.00,VWS V14.01,2013-03-19 09:13:00,
2013-03-19 04:18:00,31.2,16.1,30.07,West,272,5.0,11.0,53,0.00,,,0.00,VWS V14.01,2013-03-19 09:18:00,
2013-03-19 04:23:00,31.1,16.0,30.08,WSW,255,4.0,11.0,53,0.00,,,0.00,VWS V14.01,2013-03-19 09:23:00,
2013-03-19 04:28:00,31.1,15.5,30.08,West,273,5.0,11.0,52,0.00,,,0.00,VWS V14.01,2013-03-19 09:28:00,
2013-03-19 04:33:00,31.0,15.9,30.08,WNW,283,4.0,8.0,53,0.00,,,0.00,VWS V14.01,2013-03-19 09:33:00,
2013-03-19 04:38:00,30.9,15.8,30.07,West,267,3.0,8.0,53,0.00,,,0.00,VWS V14.01,2013-03-19 09:38:00,
2013-03-19 04:43:00,30.8,15.7,30.08,West,263,2.0,8.0,53,0.00,,,0.00,VWS V14.01,2013-03-19 09:43:00,
2013-03-19 04:48:00,30.8,15.7,30.07,WNW,282,4.0,10.0,53,0.00,,,0.00,VWS V14.01,2013-03-19 09:48:00,
2013-03-19 04:53:00,30.8,16.1,30.08,WSW,255,5.0,14.0,54,0.00,,,0.00,VWS V14.01,2013-03-19 09:53:00,
2013-03-19 04:58:00,30.8,16.1,30.09,West,259,5.0,14.0,54,0.00,,,0.00,VWS V14.01,2013-03-19 09:58:00,
2013-03-19 05:03:00,30.7,16.0,30.09,WSW,257,3.0,7.0,54,0.00,,,0.00,VWS V14.01,2013-03-19 10:03:00,
2013-03-19 05:08:00,30.6,16.4,30.08,WSW,254,1.0,7.0,55,0.00,,,0.00,VWS V14.01,2013-03-19 10:08:00,
2013-03-19 05:13:00,30.4,16.2,30.09,WSW,254,2.0,7.0,55,0.00,,,0.00,VWS V14.01,2013-03-19 10:13:00,
2013-03-19 05:18:00,30.2,16.4,30.08,WSW,251,3.0,7.0,56,0.00,,,0.00,VWS V14.01,2013-03-19 10:18:00,
2013-03-19 05:23:00,30.1,16.7,30.09,WSW,251,4.0,8.0,57,0.00,,,0.00,VWS V14.01,2013-03-19 10:23:00,
2013-03-19 05:28:00,30.1,16.7,30.09,West,261,3.0,9.0,57,0.00,,,0.00,VWS V14.01,2013-03-19 10:28:00,
2013-03-19 05:33:00,30.1,17.1,30.09,WNW,286,7.0,8.0,58,0.00,,,0.00,VWS V14.01,2013-03-19 10:33:00,
2013-03-19 05:38:00,30.0,16.6,30.09,West,270,4.0,9.0,57,0.00,,,0.00,VWS V14.01,2013-03-19 10:38:00,
2013-03-19 05:43:00,30.0,17.0,30.09,West,263,5.0,9.0,58,0.00,,,0.00,VWS V14.01,2013-03-19 10:43:00,
2013-03-19 05:48:00,29.9,16.9,30.09,West,277,4.0,9.0,58,0.00,,,0.00,VWS V14.01,2013-03-19 10:48:00,
2013-03-19 05:53:00,29.8,16.8,30.09,WSW,257,2.0,9.0,58,0.00,,,0.00,VWS V14.01,2013-03-19 10:53:00,
2013-03-19 05:58:00,29.8,17.2,30.09,WSW,247,2.0,9.0,59,0.00,,,0.00,VWS V14.01,2013-03-19 10:58:00,
2013-03-19 06:03:00,29.7,16.8,30.09,West,267,0.0,5.0,58,0.00,,,0.00,VWS V14.01,2013-03-19 11:03:00,
2013-03-19 06:08:00,29.7,16.8,30.09,West,259,2.0,6.0,58,0.00,,,0.00,VWS V14.01,2013-03-19 11:08:00,
2013-03-19 06:13:00,29.6,16.6,30.10,West,269,2.0,6.0,58,0.00,,,0.00,VWS V14.01,2013-03-19 11:13:00,
2013-03-19 06:18:00,29.6,16.6,30.10,West,263,2.0,9.0,58,0.00,,,0.00,VWS V14.01,2013-03-19 11:18:00,
2013-03-19 06:23:00,29.5,17.0,30.11,WSW,246,5.0,9.0,59,0.00,,,0.00,VWS V14.01,2013-03-19 11:23:00,
2013-03-19 06:28:00,29.4,16.9,30.11,West,273,7.0,9.0,59,0.00,,,0.00,VWS V14.01,2013-03-19 11:28:00,
2013-03-19 06:33:00,29.3,16.8,30.11,West,281,5.0,7.0,59,0.00,,,0.00,VWS V14.01,2013-03-19 11:33:00,
2013-03-19 06:38:00,29.3,16.8,30.12,West,275,2.0,8.0,59,0.00,,,0.00,VWS V14.01,2013-03-19 11:38:00,
2013-03-19 06:43:00,29.2,17.1,30.12,West,268,2.0,8.0,60,0.00,,,0.00,VWS V14.01,2013-03-19 11:43:00,
2013-03-19 06:48:00,29.1,17.0,30.12,WSW,255,3.0,8.0,60,0.00,,,0.00,VWS V14.01,2013-03-19 11:48:00,
2013-03-19 06:54:00,29.0,16.9,30.12,West,272,2.0,8.0,60,0.00,,,0.00,VWS V14.01,2013-03-19 11:54:00,
2013-03-19 06:59:00,29.0,16.9,30.12,WNW,288,5.0,8.0,60,0.00,,,0.00,VWS V14.01,2013-03-19 11:59:00,
2013-03-19 07:04:00,29.0,16.9,30.12,West,278,1.0,5.0,60,0.00,,,0.00,VWS V14.01,2013-03-19 12:04:00,
2013-03-19 07:09:00,29.0,16.5,30.12,West,265,4.0,6.0,59,0.00,,,0.00,VWS V14.01,2013-03-19 12:09:00,
2013-03-19 07:14:00,29.0,16.5,30.13,NW,316,2.0,8.0,59,0.00,,,0.00,VWS V14.01,2013-03-19 12:14:00,
2013-03-19 07:19:00,29.1,16.2,30.13,West,270,1.0,12.0,58,0.00,,,0.00,VWS V14.01,2013-03-19 12:19:00,
2013-03-19 07:24:00,29.1,16.2,30.12,WSW,250,2.0,12.0,58,0.00,,,0.00,VWS V14.01,2013-03-19 12:24:00,
2013-03-19 07:29:00,29.1,16.2,30.12,West,267,4.0,12.0,58,0.00,,,0.00,VWS V14.01,2013-03-19 12:29:00,
2013-03-19 07:34:00,29.3,16.4,30.13,West,273,1.0,8.0,58,0.00,,,0.00,VWS V14.01,2013-03-19 12:34:00,
2013-03-19 07:39:00,29.4,16.1,30.13,WSW,257,3.0,8.0,57,0.00,,,0.00,VWS V14.01,2013-03-19 12:39:00,
2013-03-19 07:44:00,29.5,16.2,30.13,WNW,287,5.0,12.0,57,0.00,,,0.00,VWS V14.01,2013-03-19 12:44:00,
2013-03-19 07:49:00,29.6,16.2,30.13,West,269,2.0,12.0,57,0.00,,,0.00,VWS V14.01,2013-03-19 12:49:00,
2013-03-19 07:54:00,29.7,15.9,30.13,West,279,2.0,12.0,56,0.00,,,0.00,VWS V14.01,2013-03-19 12:54:00,
2013-03-19 07:59:00,29.7,15.9,30.13,West,279,1.0,12.0,56,0.00,,,0.00,VWS V14.01,2013-03-19 12:59:00,
2013-03-19 08:04:00,29.8,16.0,30.15,WSW,248,8.0,8.0,56,0.00,,,0.00,VWS V14.01,2013-03-19 13:04:00,
2013-03-19 08:09:00,30.0,15.8,30.15,WNW,294,2.0,8.0,55,0.00,,,0.00,VWS V14.01,2013-03-19 13:09:00,
2013-03-19 08:14:00,30.2,16.0,30.15,NW,304,5.0,8.0,55,0.00,,,0.00,VWS V14.01,2013-03-19 13:14:00,
2013-03-19 08:19:00,30.3,16.1,30.15,WNW,302,4.0,8.0,55,0.00,,,0.00,VWS V14.01,2013-03-19 13:19:00,
2013-03-19 08:24:00,30.4,15.8,30.15,West,266,4.0,8.0,54,0.00,,,0.00,VWS V14.01,2013-03-19 13:24:00,
2013-03-19 08:29:00,30.6,15.9,30.15,West,267,4.0,12.0,54,0.00,,,0.00,VWS V14.01,2013-03-19 13:29:00,
2013-03-19 08:34:00,30.6,15.5,30.15,WNW,296,5.0,12.0,53,0.00,,,0.00,VWS V14.01,2013-03-19 13:34:00,
2013-03-19 08:39:00,30.6,15.9,30.15,West,273,2.0,13.0,54,0.00,,,0.00,VWS V14.01,2013-03-19 13:39:00,
2013-03-19 08:44:00,30.7,15.6,30.16,WNW,302,8.0,14.0,53,0.00,,,0.00,VWS V14.01,2013-03-19 13:44:00,
2013-03-19 08:49:00,30.7,15.6,30.16,WSW,254,6.0,14.0,53,0.00,,,0.00,VWS V14.01,2013-03-19 13:49:00,
2013-03-19 08:54:00,30.7,16.0,30.17,West,277,4.0,14.0,54,0.00,,,0.00,VWS V14.01,2013-03-19 13:54:00,
2013-03-19 08:59:00,30.9,16.2,30.17,WNW,284,11.0,14.0,54,0.00,,,0.00,VWS V14.01,2013-03-19 13:59:00,
2013-03-19 09:04:00,31.2,15.6,30.17,WSW,257,4.0,14.0,52,0.00,,,0.00,VWS V14.01,2013-03-19 14:04:00,
2013-03-19 09:09:00,31.5,15.0,30.17,West,267,6.0,14.0,50,0.00,,,0.00,VWS V14.01,2013-03-19 14:09:00,
2013-03-19 09:14:00,31.6,14.2,30.17,WNW,299,2.0,14.0,48,0.00,,,0.00,VWS V14.01,2013-03-19 14:14:00,
2013-03-19 09:19:00,31.9,14.4,30.17,NNW,347,2.0,14.0,48,0.00,,,0.00,VWS V14.01,2013-03-19 14:19:00,
2013-03-19 09:24:00,32.1,14.6,30.18,WNW,292,6.0,14.0,48,0.00,,,0.00,VWS V14.01,2013-03-19 14:24:00,
2013-03-19 09:29:00,32.2,13.8,30.19,West,267,2.0,14.0,46,0.00,,,0.00,VWS V14.01,2013-03-19 14:29:00,
2013-03-19 09:34:00,32.1,12.7,30.19,WNW,298,7.0,12.0,44,0.00,,,0.00,VWS V14.01,2013-03-19 14:34:00,
2013-03-19 09:39:00,32.1,12.7,30.20,WNW,285,5.0,12.0,44,0.00,,,0.00,VWS V14.01,2013-03-19 14:39:00,
2013-03-19 09:44:00,32.3,14.3,30.20,West,266,6.0,12.0,47,0.00,,,0.00,VWS V14.01,2013-03-19 14:44:00,
2013-03-19 09:49:00,32.6,14.6,30.20,WNW,293,9.0,12.0,47,0.00,,,0.00,VWS V14.01,2013-03-19 14:49:00,
2013-03-19 09:54:00,33.0,14.5,30.20,WSW,257,7.0,12.0,46,0.00,,,0.00,VWS V14.01,2013-03-19 14:54:00,
2013-03-19 09:59:00,33.2,14.2,30.21,West,269,3.0,18.0,45,0.00,,,0.00,VWS V14.01,2013-03-19 14:59:00,
2013-03-19 10:04:00,33.4,13.3,30.21,WNW,295,5.0,14.0,43,0.00,,,0.00,VWS V14.01,2013-03-19 15:04:00,
2013-03-19 10:09:00,33.3,13.8,30.22,West,275,9.0,14.0,44,0.00,,,0.00,VWS V14.01,2013-03-19 15:09:00,
2013-03-19 10:14:00,33.2,13.7,30.22,NW,317,4.0,15.0,44,0.00,,,0.00,VWS V14.01,2013-03-19 15:14:00,
2013-03-19 10:19:00,33.6,14.5,30.22,NW,311,6.0,15.0,45,0.00,,,0.00,VWS V14.01,2013-03-19 15:19:00,
2013-03-19 10:24:00,33.7,13.6,30.22,WNW,282,5.0,15.0,43,0.00,,,0.00,VWS V14.01,2013-03-19 15:24:00,
2013-03-19 10:30:00,33.8,13.1,30.21,WNW,292,7.0,15.0,42,0.00,,,0.00,VWS V14.01,2013-03-19 15:30:00,
2013-03-19 10:35:00,33.9,12.7,30.22,WSW,249,7.0,18.0,41,0.00,,,0.00,VWS V14.01,2013-03-19 15:35:00,
2013-03-19 10:40:00,34.0,13.3,30.22,WNW,294,7.0,18.0,42,0.00,,,0.00,VWS V14.01,2013-03-19 15:40:00,
2013-03-19 10:45:00,34.2,11.8,30.22,WNW,301,2.0,18.0,39,0.00,,,0.00,VWS V14.01,2013-03-19 15:45:00,
2013-03-19 10:50:00,34.4,13.1,30.23,West,263,5.0,18.0,41,0.00,,,0.00,VWS V14.01,2013-03-19 15:50:00,
2013-03-19 10:55:00,34.6,12.8,30.23,NW,313,4.0,18.0,40,0.00,,,0.00,VWS V14.01,2013-03-19 15:55:00,
2013-03-19 11:00:00,34.9,13.6,30.23,NW,304,6.0,18.0,41,0.00,,,0.00,VWS V14.01,2013-03-19 16:00:00,
2013-03-19 11:05:00,35.1,14.3,30.23,NW,306,8.0,11.0,42,0.00,,,0.00,VWS V14.01,2013-03-19 16:05:00,
2013-03-19 11:10:00,35.3,14.0,30.24,WSW,255,6.0,16.0,41,0.00,,,0.00,VWS V14.01,2013-03-19 16:10:00,
2013-03-19 11:15:00,35.5,12.4,30.24,NW,317,2.0,16.0,38,0.00,,,0.00,VWS V14.01,2013-03-19 16:15:00,
2013-03-19 11:20:00,35.6,12.5,30.24,West,278,5.0,16.0,38,0.00,,,0.00,VWS V14.01,2013-03-19 16:20:00,
2013-03-19 11:25:00,35.8,13.3,30.23,NW,306,6.0,16.0,39,0.00,,,0.00,VWS V14.01,2013-03-19 16:25:00,
2013-03-19 11:30:00,36.2,13.1,30.24,WNW,286,2.0,16.0,38,0.00,,,0.00,VWS V14.01,2013-03-19 16:30:00,
2013-03-19 11:35:00,36.6,14.6,30.23,WNW,293,5.0,8.0,40,0.00,,,0.00,VWS V14.01,2013-03-19 16:35:00,
2013-03-19 11:40:00,36.6,14.0,30.23,SW,225,6.0,13.0,39,0.00,,,0.00,VWS V14.01,2013-03-19 16:40:00,
2013-03-19 11:45:00,36.4,14.4,30.24,SW,220,5.0,16.0,40,0.00,,,0.00,VWS V14.01,2013-03-19 16:45:00,
2013-03-19 11:50:00,36.8,14.8,30.24,WSW,241,5.0,16.0,40,0.00,,,0.00,VWS V14.01,2013-03-19 16:50:00,
2013-03-19 11:55:00,37.3,12.8,30.24,NW,304,9.0,16.0,36,0.00,,,0.00,VWS V14.01,2013-03-19 16:55:00,
2013-03-19 12:00:00,37.4,13.5,30.24,West,267,5.0,5.0,37,0.00,,,0.00,VWS V14.01,2013-03-19 17:00:00,
2013-03-19 12:05:00,37.4,14.1,30.24,West,279,2.0,14.0,38,0.00,,,0.00,VWS V14.01,2013-03-19 17:05:00,
2013-03-19 12:10:00,37.6,14.3,30.24,West,265,5.0,14.0,38,0.00,,,0.00,VWS V14.01,2013-03-19 17:10:00,
2013-03-19 12:15:00,37.9,14.0,30.24,WNW,298,8.0,14.0,37,0.00,,,0.00,VWS V14.01,2013-03-19 17:15:00,
2013-03-19 12:20:00,38.1,12.9,30.24,North,355,8.0,14.0,35,0.00,,,0.00,VWS V14.01,2013-03-19 17:20:00,
2013-03-19 12:25:00,38.4,15.0,30.24,West,259,3.0,14.0,38,0.00,,,0.00,VWS V14.01,2013-03-19 17:25:00,
2013-03-19 12:30:00,38.8,13.5,30.24,NW,319,5.0,9.0,35,0.00,,,0.00,VWS V14.01,2013-03-19 17:30:00,
2013-03-19 12:35:00,38.7,14.1,30.24,West,261,12.0,16.0,36,0.00,,,0.00,VWS V14.01,2013-03-19 17:35:00,
2013-03-19 12:40:00,38.6,13.3,30.23,WSW,257,8.0,16.0,35,0.00,,,0.00,VWS V14.01,2013-03-19 17:40:00,
2013-03-19 12:45:00,38.9,12.9,30.24,SW,233,3.0,16.0,34,0.00,,,0.00,VWS V14.01,2013-03-19 17:45:00,
2013-03-19 12:50:00,38.9,13.6,30.24,WSW,244,7.0,16.0,35,0.00,,,0.00,VWS V14.01,2013-03-19 17:50:00,
2013-03-19 12:55:00,39.4,12.7,30.24,West,267,7.0,17.0,33,0.00,,,0.00,VWS V14.01,2013-03-19 17:55:00,
2013-03-19 13:00:00,39.6,13.6,30.24,NNW,331,2.0,6.0,34,0.00,,,0.00,VWS V14.01,2013-03-19 18:00:00,
2013-03-19 13:05:00,40.0,15.2,30.24,West,275,9.0,10.0,36,0.00,,,0.00,VWS V14.01,2013-03-19 18:05:00,
2013-03-19 13:10:00,40.1,14.0,30.24,NW,315,4.0,10.0,34,0.00,,,0.00,VWS V14.01,2013-03-19 18:10:00,
2013-03-19 13:15:00,40.4,12.9,30.24,NW,304,6.0,11.0,32,0.00,,,0.00,VWS V14.01,2013-03-19 18:15:00,
2013-03-19 13:20:00,40.7,13.9,30.24,West,261,6.0,12.0,33,0.00,,,0.00,VWS V14.01,2013-03-19 18:20:00,
2013-03-19 13:25:00,40.7,12.4,30.24,NW,311,7.0,12.0,31,0.00,,,0.00,VWS V14.01,2013-03-19 18:25:00,
2013-03-19 13:30:00,40.9,14.0,30.24,WSW,243,6.0,8.0,33,0.00,,,0.00,VWS V14.01,2013-03-19 18:30:00,
2013-03-19 13:35:00,41.1,12.0,30.23,WSW,258,5.0,14.0,30,0.00,,,0.00,VWS V14.01,2013-03-19 18:35:00,
2013-03-19 13:40:00,40.9,13.3,30.23,NW,304,6.0,14.0,32,0.00,,,0.00,VWS V14.01,2013-03-19 18:40:00,
2013-03-19 13:45:00,41.1,12.0,30.23,West,269,6.0,14.0,30,0.00,,,0.00,VWS V14.01,2013-03-19 18:45:00,
2013-03-19 13:50:00,41.3,13.0,30.23,West,279,4.0,14.0,31,0.00,,,0.00,VWS V14.01,2013-03-19 18:50:00,
2013-03-19 13:55:00,41.2,12.9,30.23,WNW,286,7.0,14.0,31,0.00,,,0.00,VWS V14.01,2013-03-19 18:55:00,
2013-03-19 14:00:00,41.3,13.0,30.23,NW,312,11.0,11.0,31,0.00,,,0.00,VWS V14.01,2013-03-19 19:00:00,
2013-03-19 14:06:00,41.0,12.0,30.22,NW,308,5.0,14.0,30,0.00,,,0.00,VWS V14.01,2013-03-19 19:06:00,
2013-03-19 14:11:00,41.1,13.5,30.22,WSW,256,8.0,14.0,32,0.00,,,0.00,VWS V14.01,2013-03-19 19:11:00,
2013-03-19 14:16:00,41.3,12.2,30.22,WSW,242,5.0,14.0,30,0.00,,,0.00,VWS V14.01,2013-03-19 19:16:00,
2013-03-19 14:21:00,41.5,12.4,30.22,NW,309,12.0,14.0,30,0.00,,,0.00,VWS V14.01,2013-03-19 19:21:00,
2013-03-19 14:26:00,41.4,11.5,30.22,NNW,331,0.0,14.0,29,0.00,,,0.00,VWS V14.01,2013-03-19 19:26:00,
2013-03-19 14:31:00,41.7,11.8,30.22,WNW,284,7.0,7.0,29,0.00,,,0.00,VWS V14.01,2013-03-19 19:31:00,
2013-03-19 14:36:00,42.0,12.8,30.22,SW,236,7.0,10.0,30,0.00,,,0.00,VWS V14.01,2013-03-19 19:36:00,
2013-03-19 14:41:00,42.1,12.1,30.22,WSW,244,7.0,10.0,29,0.00,,,0.00,VWS V14.01,2013-03-19 19:41:00,
2013-03-19 14:51:00,42.3,13.8,30.21,North,349,0.0,13.0,31,0.00,,,0.00,VWS V14.01,2013-03-19 19:51:00,
2013-03-19 15:00:00,42.5,14.0,30.21,West,271,7.0,13.0,31,0.00,,,0.00,VWS V14.01,2013-03-19 20:00:00,
2013-03-19 15:06:00,42.8,12.8,30.21,WNW,286,4.0,14.0,29,0.00,,,0.00,VWS V14.01,2013-03-19 20:06:00,
2013-03-19 15:11:00,42.6,10.1,30.21,WNW,294,2.0,14.0,26,0.00,,,0.00,VWS V14.01,2013-03-19 20:11:00,
2013-03-19 15:21:00,42.8,12.0,30.22,WNW,294,8.0,14.0,28,0.00,,,0.00,VWS V14.01,2013-03-19 20:21:00,
2013-03-19 15:30:00,43.1,14.5,30.22,West,261,3.0,14.0,31,0.00,,,0.00,VWS V14.01,2013-03-19 20:30:00,
2013-03-19 15:37:00,43.4,13.3,30.22,West,271,6.0,14.0,29,0.00,,,0.00,VWS V14.01,2013-03-19 20:37:00,
2013-03-19 15:42:00,43.2,12.3,30.22,NW,306,8.0,14.0,28,0.00,,,0.00,VWS V14.01,2013-03-19 20:42:00,
2013-03-19 15:47:00,43.2,10.6,30.22,NW,312,7.0,14.0,26,0.00,,,0.00,VWS V14.01,2013-03-19 20:47:00,
2013-03-19 15:52:00,43.1,11.4,30.22,North,360,5.0,14.0,27,0.00,,,0.00,VWS V14.01,2013-03-19 20:52:00,
2013-03-19 15:57:00,43.2,12.3,30.22,West,267,7.0,14.0,28,0.00,,,0.00,VWS V14.01,2013-03-19 20:57:00,
2013-03-19 16:02:00,43.2,13.1,30.22,WSW,257,6.0,8.0,29,0.00,,,0.00,VWS V14.01,2013-03-19 21:02:00,
2013-03-19 16:07:00,43.4,11.7,30.22,West,270,7.0,14.0,27,0.00,,,0.00,VWS V14.01,2013-03-19 21:07:00,
2013-03-19 16:12:00,43.2,11.5,30.22,WNW,288,8.0,14.0,27,0.00,,,0.00,VWS V14.01,2013-03-19 21:12:00,
2013-03-19 16:17:00,43.1,12.2,30.22,WNW,295,4.0,14.0,28,0.00,,,0.00,VWS V14.01,2013-03-19 21:17:00,
2013-03-19 16:22:00,42.9,12.9,30.21,WSW,251,5.0,14.0,29,0.00,,,0.00,VWS V14.01,2013-03-19 21:22:00,
2013-03-19 16:27:00,43.0,13.7,30.21,WSW,257,3.0,14.0,30,0.00,,,0.00,VWS V14.01,2013-03-19 21:27:00,
2013-03-19 16:32:00,43.1,13.8,30.21,WSW,251,4.0,7.0,30,0.00,,,0.00,VWS V14.01,2013-03-19 21:32:00,
2013-03-19 16:37:00,43.2,14.6,30.21,SW,229,3.0,8.0,31,0.00,,,0.00,VWS V14.01,2013-03-19 21:37:00,
2013-03-19 16:42:00,43.3,12.4,30.21,West,277,6.0,12.0,28,0.00,,,0.00,VWS V14.01,2013-03-19 21:42:00,
2013-03-19 16:47:00,43.4,12.5,30.22,WSW,242,4.0,12.0,28,0.00,,,0.00,VWS V14.01,2013-03-19 21:47:00,
2013-03-19 16:52:00,43.6,13.5,30.22,West,259,11.0,12.0,29,0.00,,,0.00,VWS V14.01,2013-03-19 21:52:00,
2013-03-19 16:57:00,43.5,13.4,30.22,West,261,6.0,12.0,29,0.00,,,0.00,VWS V14.01,2013-03-19 21:57:00,
2013-03-19 17:02:00,43.4,10.8,30.22,NW,308,5.0,9.0,26,0.00,,,0.00,VWS V14.01,2013-03-19 22:02:00,
2013-03-19 17:07:00,43.3,12.4,30.22,West,269,4.0,9.0,28,0.00,,,0.00,VWS V14.01,2013-03-19 22:07:00,
2013-03-19 17:12:00,43.2,11.5,30.22,WSW,241,2.0,9.0,27,0.00,,,0.00,VWS V14.01,2013-03-19 22:12:00,
2013-03-19 17:17:00,43.4,14.1,30.22,WSW,254,5.0,9.0,30,0.00,,,0.00,VWS V14.01,2013-03-19 22:17:00,
2013-03-19 17:22:00,43.4,12.5,30.22,West,266,3.0,9.0,28,0.00,,,0.00,VWS V14.01,2013-03-19 22:22:00,
2013-03-19 17:27:00,43.4,14.8,30.22,WNW,302,6.0,9.0,31,0.00,,,0.00,VWS V14.01,2013-03-19 22:27:00,
2013-03-19 17:32:00,43.4,14.8,30.22,West,265,3.0,5.0,31,0.00,,,0.00,VWS V14.01,2013-03-19 22:32:00,
2013-03-19 17:38:00,43.5,14.9,30.22,West,264,5.0,11.0,31,0.00,,,0.00,VWS V14.01,2013-03-19 22:38:00,
2013-03-19 17:43:00,43.4,12.5,30.22,West,279,4.0,11.0,28,0.00,,,0.00,VWS V14.01,2013-03-19 22:43:00,
2013-03-19 17:48:00,43.3,11.6,30.22,WSW,257,6.0,11.0,27,0.00,,,0.00,VWS V14.01,2013-03-19 22:48:00,
2013-03-19 17:53:00,43.2,11.5,30.22,West,277,4.0,11.0,27,0.00,,,0.00,VWS V14.01,2013-03-19 22:53:00,
2013-03-19 17:58:00,43.4,13.3,30.22,WNW,286,4.0,11.0,29,0.00,,,0.00,VWS V14.01,2013-03-19 22:58:00,
2013-03-19 18:03:00,43.6,12.7,30.22,SSW,192,4.0,9.0,28,0.00,,,0.00,VWS V14.01,2013-03-19 23:03:00,
2013-03-19 18:08:00,43.7,11.9,30.22,West,264,4.0,9.0,27,0.00,,,0.00,VWS V14.01,2013-03-19 23:08:00,
2013-03-19 18:13:00,43.8,12.8,30.22,SSW,195,4.0,9.0,28,0.00,,,0.00,VWS V14.01,2013-03-19 23:13:00,
2013-03-19 18:18:00,43.7,11.9,30.22,West,268,4.0,9.0,27,0.00,,,0.00,VWS V14.01,2013-03-19 23:18:00,
2013-03-19 18:23:00,43.5,12.6,30.22,SW,220,4.0,9.0,28,0.00,,,0.00,VWS V14.01,2013-03-19 23:23:00,
2013-03-19 18:28:00,43.3,12.4,30.22,West,280,4.0,9.0,28,0.00,,,0.00,VWS V14.01,2013-03-19 23:28:00,
2013-03-19 18:33:00,43.0,12.9,30.22,West,265,2.0,5.0,29,0.00,,,0.00,VWS V14.01,2013-03-19 23:33:00,
2013-03-19 18:38:00,42.8,12.8,30.22,West,266,4.0,7.0,29,0.00,,,0.00,VWS V14.01,2013-03-19 23:38:00,
2013-03-19 18:43:00,42.7,14.2,30.22,WNW,293,4.0,7.0,31,0.00,,,0.00,VWS V14.01,2013-03-19 23:43:00,
2013-03-19 18:48:00,42.6,15.5,30.22,SW,232,4.0,7.0,33,0.00,,,0.00,VWS V14.01,2013-03-19 23:48:00,
2013-03-19 18:53:00,42.4,16.7,30.22,WSW,257,3.0,7.0,35,0.00,,,0.00,VWS V14.01,2013-03-19 23:53:00,
2013-03-19 18:58:00,42.1,16.4,30.22,WSW,256,3.0,7.0,35,0.00,,,0.00,VWS V14.01,2013-03-19 23:58:00,
2013-03-19 19:03:00,41.8,16.2,30.22,WSW,256,3.0,6.0,35,0.00,,,0.00,VWS V14.01,2013-03-20 00:03:00,
2013-03-19 19:08:00,41.6,16.0,30.22,West,275,4.0,6.0,35,0.00,,,0.00,VWS V14.01,2013-03-20 00:08:00,
2013-03-19 19:13:00,41.5,16.5,30.22,West,275,1.0,6.0,36,0.00,,,0.00,VWS V14.01,2013-03-20 00:13:00,
2013-03-19 19:18:00,41.1,16.8,30.22,West,275,0.0,6.0,37,0.00,,,0.00,VWS V14.01,2013-03-20 00:18:00,
2013-03-19 19:23:00,40.7,16.5,30.22,West,275,0.0,6.0,37,0.00,,,0.00,VWS V14.01,2013-03-20 00:23:00,
2013-03-19 19:28:00,40.2,16.6,30.22,West,275,1.0,6.0,38,0.00,,,0.00,VWS V14.01,2013-03-20 00:28:00,
2013-03-19 19:33:00,39.7,16.8,30.22,West,275,0.0,0.0,39,0.00,,,0.00,VWS V14.01,2013-03-20 00:33:00,
2013-03-19 19:38:00,39.3,17.0,30.22,West,275,1.0,2.0,40,0.00,,,0.00,VWS V14.01,2013-03-20 00:38:00,
2013-03-19 19:43:00,38.9,16.6,30.22,West,275,0.0,2.0,40,0.00,,,0.00,VWS V14.01,2013-03-20 00:43:00,
2013-03-19 19:49:00,38.6,17.0,30.22,West,275,1.0,2.0,41,0.00,,,0.00,VWS V14.01,2013-03-20 00:49:00,
2013-03-19 19:54:00,38.4,16.8,30.22,West,275,0.0,2.0,41,0.00,,,0.00,VWS V14.01,2013-03-20 00:54:00,
2013-03-19 19:59:00,38.2,16.6,30.22,West,275,1.0,2.0,41,0.00,,,0.00,VWS V14.01,2013-03-20 00:59:00,
2013-03-19 20:04:00,38.0,17.0,30.22,West,275,0.0,0.0,42,0.00,,,0.00,VWS V14.01,2013-03-20 01:04:00,
2013-03-19 20:09:00,37.3,18.9,30.22,West,275,0.0,1.0,47,0.00,,,0.00,VWS V14.01,2013-03-20 01:09:00,
2013-03-19 20:14:00,36.6,18.3,30.22,West,275,1.0,1.0,47,0.00,,,0.00,VWS V14.01,2013-03-20 01:14:00,
2013-03-19 20:19:00,36.1,19.7,30.22,West,275,0.0,2.0,51,0.00,,,0.00,VWS V14.01,2013-03-20 01:19:00,
2013-03-19 20:24:00,35.5,19.2,30.22,West,275,0.0,2.0,51,0.00,,,0.00,VWS V14.01,2013-03-20 01:24:00,
2013-03-19 20:29:00,35.3,19.5,30.22,West,275,0.0,2.0,52,0.00,,,0.00,VWS V14.01,2013-03-20 01:29:00,
2013-03-19 20:34:00,35.1,19.7,30.22,West,275,0.0,0.0,53,0.00,,,0.00,VWS V14.01,2013-03-20 01:34:00,
2013-03-19 20:39:00,34.7,19.8,30.22,West,275,0.0,0.0,54,0.00,,,0.00,VWS V14.01,2013-03-20 01:39:00,
2013-03-19 20:44:00,34.4,19.5,30.22,West,275,0.0,0.0,54,0.00,,,0.00,VWS V14.01,2013-03-20 01:44:00,
2013-03-19 20:49:00,34.0,20.0,30.21,West,275,0.0,0.0,56,0.00,,,0.00,VWS V14.01,2013-03-20 01:49:00,
2013-03-19 20:54:00,33.5,19.1,30.21,West,275,0.0,0.0,55,0.00,,,0.00,VWS V14.01,2013-03-20 01:54:00,
2013-03-19 20:59:00,33.1,19.1,30.22,West,275,0.0,0.0,56,0.00,,,0.00,VWS V14.01,2013-03-20 01:59:00,
2013-03-19 21:04:00,32.8,19.3,30.21,West,275,0.0,0.0,57,0.00,,,0.00,VWS V14.01,2013-03-20 02:04:00,
2013-03-19 21:09:00,32.5,19.4,30.22,West,275,0.0,0.0,58,0.00,,,0.00,VWS V14.01,2013-03-20 02:09:00,
2013-03-19 21:14:00,32.2,19.1,30.22,West,275,0.0,0.0,58,0.00,,,0.00,VWS V14.01,2013-03-20 02:14:00,
2013-03-19 21:19:00,31.8,19.5,30.22,West,275,0.0,0.0,60,0.00,,,0.00,VWS V14.01,2013-03-20 02:19:00,
2013-03-19 21:24:00,31.6,19.3,30.22,West,275,0.0,0.0,60,0.00,,,0.00,VWS V14.01,2013-03-20 02:24:00,
2013-03-19 21:29:00,31.4,19.1,30.22,West,275,1.0,2.0,60,0.00,,,0.00,VWS V14.01,2013-03-20 02:29:00,
2013-03-19 21:34:00,31.4,19.5,30.22,West,275,0.0,2.0,61,0.00,,,0.00,VWS V14.01,2013-03-20 02:34:00,
2013-03-19 21:39:00,31.2,19.7,30.22,West,275,0.0,2.0,62,0.00,,,0.00,VWS V14.01,2013-03-20 02:39:00,
2013-03-19 21:44:00,31.0,19.5,30.22,West,275,0.0,2.0,62,0.00,,,0.00,VWS V14.01,2013-03-20 02:44:00,
2013-03-19 21:49:00,30.9,19.8,30.22,West,275,0.0,2.0,63,0.00,,,0.00,VWS V14.01,2013-03-20 02:49:00,
2013-03-19 21:54:00,30.7,19.6,30.22,West,275,0.0,2.0,63,0.00,,,0.00,VWS V14.01,2013-03-20 02:54:00,
2013-03-19 21:59:00,30.6,19.5,30.22,West,275,1.0,2.0,63,0.00,,,0.00,VWS V14.01,2013-03-20 02:59:00,
2013-03-19 22:04:00,30.6,19.5,30.23,West,276,0.0,4.0,63,0.00,,,0.00,VWS V14.01,2013-03-20 03:04:00,
2013-03-19 22:09:00,31.2,19.3,30.22,West,276,0.0,4.0,61,0.00,,,0.00,VWS V14.01,2013-03-20 03:09:00,
2013-03-19 22:14:00,31.6,20.1,30.23,West,276,0.0,4.0,62,0.00,,,0.00,VWS V14.01,2013-03-20 03:14:00,
2013-03-19 22:19:00,31.7,20.2,30.22,West,276,0.0,4.0,62,0.00,,,0.00,VWS V14.01,2013-03-20 03:19:00,
2013-03-19 22:24:00,31.6,20.1,30.22,West,276,0.0,4.0,62,0.00,,,0.00,VWS V14.01,2013-03-20 03:24:00,
2013-03-19 22:29:00,31.4,20.3,30.22,West,276,0.0,4.0,63,0.00,,,0.00,VWS V14.01,2013-03-20 03:29:00,
2013-03-19 22:34:00,31.0,19.9,30.22,West,276,0.0,2.0,63,0.00,,,0.00,VWS V14.01,2013-03-20 03:34:00,
2013-03-19 22:39:00,30.8,19.7,30.22,West,276,1.0,2.0,63,0.00,,,0.00,VWS V14.01,2013-03-20 03:39:00,
2013-03-19 22:44:00,30.7,20.0,30.22,West,276,0.0,2.0,64,0.00,,,0.00,VWS V14.01,2013-03-20 03:44:00,
2013-03-19 22:49:00,30.8,19.7,30.22,West,276,0.0,2.0,63,0.00,,,0.00,VWS V14.01,2013-03-20 03:49:00,
2013-03-19 22:54:00,31.0,19.9,30.22,West,276,0.0,2.0,63,0.00,,,0.00,VWS V14.01,2013-03-20 03:54:00,
2013-03-19 22:59:00,31.2,19.7,30.22,West,275,1.0,4.0,62,0.00,,,0.00,VWS V14.01,2013-03-20 03:59:00,
2013-03-19 23:00:00,31.2,19.7,30.22,West,275,1.0,4.0,62,0.00,,,0.00,VWS V14.01,2013-03-20 04:00:00,
2013-03-19 23:04:00,31.2,20.1,30.21,West,275,0.0,2.0,63,0.00,,,0.00,VWS V14.01,2013-03-20 04:04:00,
2013-03-19 23:09:00,31.1,20.0,30.22,West,275,1.0,4.0,63,0.00,,,0.00,VWS V14.01,2013-03-20 04:09:00,
2013-03-19 23:14:00,30.9,19.8,30.22,West,275,2.0,4.0,63,0.00,,,0.00,VWS V14.01,2013-03-20 04:14:00,
2013-03-19 23:19:00,31.0,19.9,30.22,West,275,0.0,4.0,63,0.00,,,0.00,VWS V14.01,2013-03-20 04:19:00,
2013-03-19 23:24:00,31.2,19.7,30.22,West,275,2.0,4.0,62,0.00,,,0.00,VWS V14.01,2013-03-20 04:24:00,
2013-03-19 23:29:00,31.2,20.1,30.21,West,275,0.0,4.0,63,0.00,,,0.00,VWS V14.01,2013-03-20 04:29:00,
2013-03-19 23:34:00,31.1,20.0,30.21,West,275,0.0,2.0,63,0.00,,,0.00,VWS V14.01,2013-03-20 04:34:00,
2013-03-19 23:39:00,30.9,20.2,30.21,West,275,0.0,2.0,64,0.00,,,0.00,VWS V14.01,2013-03-20 04:39:00,
2013-03-19 23:44:00,30.7,20.0,30.21,West,275,0.0,2.0,64,0.00,,,0.00,VWS V14.01,2013-03-20 04:44:00,
2013-03-19 23:49:00,30.6,19.9,30.20,West,275,1.0,2.0,64,0.00,,,0.00,VWS V14.01,2013-03-20 04:49:00,
2013-03-19 23:54:00,30.6,20.2,30.20,West,275,2.0,4.0,65,0.00,,,0.00,VWS V14.01,2013-03-20 04:54:00,
2013-03-19 23:59:00,30.7,20.3,30.20,West,275,4.0,4.0,65,0.00,,,0.00,VWS V14.01,2013-03-20 04:59:00,